Time,TemperatureF,DewpointF,PressureIn,WindDirection,WindDirectionDegrees,WindSpeedMPH,WindSpeedGustMPH,Humidity,HourlyPrecipIn,Conditions,Clouds,dailyrainin,SoftwareType,DateUTC
2013-02-05 00:00:00,46.8,42.2,29.65,SSE,158,0.9,4.3,84,0.00,,,0.00,WUHU216HW,2013-02-05 08:00:00,
2013-02-05 00:05:00,47.0,42.4,29.65,ESE,113,0.0,4.3,84,0.00,,,0.00,WUHU216HW,2013-02-05 08:05:00,
2013-02-05 00:10:00,46.8,42.2,29.65,West,270,0.4,1.1,84,0.00,,,0.00,WUHU216HW,2013-02-05 08:10:00,
2013-02-05 00:15:00,46.6,42.4,29.65,SW,225,0.2,0.9,85,0.00,,,0.00,WUHU216HW,2013-02-05 08:15:00,
2013-02-05 00:20:00,46.4,42.2,29.64,East,90,0.0,0.4,85,0.00,,,0.00,WUHU216HW,2013-02-05 08:20:00,
2013-02-05 00:25:00,46.4,42.2,29.64,SE,135,0.0,1.1,85,0.00,,,0.00,WUHU216HW,2013-02-05 08:25:00,
2013-02-05 00:30:00,46.4,42.2,29.64,ESE,113,0.2,1.1,85,0.00,,,0.00,WUHU216HW,2013-02-05 08:30:00,
2013-02-05 00:35:00,46.4,42.2,29.64,ESE,113,0.0,0.4,85,0.00,,,0.00,WUHU216HW,2013-02-05 08:35:00,
2013-02-05 00:40:00,46.4,42.2,29.64,East,90,0.0,1.3,85,0.00,,,0.00,WUHU216HW,2013-02-05 08:40:00,
2013-02-05 00:45:00,46.4,42.2,29.64,NNE,23,0.0,1.8,85,0.00,,,0.00,WUHU216HW,2013-02-05 08:45:00,
2013-02-05 00:50:00,46.4,42.2,29.65,SE,135,0.0,1.8,85,0.00,,,0.00,WUHU216HW,2013-02-05 08:50:00,
2013-02-05 00:55:00,46.6,42.4,29.64,West,270,0.9,0.9,85,0.00,,,0.00,WUHU216HW,2013-02-05 08:55:00,
2013-02-05 01:00:00,46.8,42.6,29.64,WNW,293,0.0,1.3,85,0.00,,,0.00,WUHU216HW,2013-02-05 09:00:00,
2013-02-05 01:05:00,46.8,42.2,29.65,SSE,158,0.0,1.3,84,0.00,,,0.00,WUHU216HW,2013-02-05 09:05:00,
2013-02-05 01:10:00,46.8,42.0,29.65,ENE,68,0.4,1.6,83,0.00,,,0.00,WUHU216HW,2013-02-05 09:10:00,
2013-02-05 01:15:00,47.2,42.3,29.64,ENE,68,0.0,1.6,83,0.00,,,0.00,WUHU216HW,2013-02-05 09:15:00,
2013-02-05 01:20:00,47.2,41.7,29.64,WNW,293,1.1,2.5,81,0.00,,,0.00,WUHU216HW,2013-02-05 09:20:00,
2013-02-05 01:25:00,47.5,41.9,29.64,SE,135,0.2,2.5,81,0.00,,,0.00,WUHU216HW,2013-02-05 09:25:00,
2013-02-05 01:30:00,47.5,41.9,29.64,NW,315,0.2,1.8,81,0.00,,,0.00,WUHU216HW,2013-02-05 09:30:00,
2013-02-05 01:35:00,47.7,41.9,29.64,ESE,113,0.4,2.0,80,0.00,,,0.00,WUHU216HW,2013-02-05 09:35:00,
2013-02-05 01:40:00,47.7,42.1,29.64,ESE,113,0.4,2.0,81,0.00,,,0.00,WUHU216HW,2013-02-05 09:40:00,
2013-02-05 01:45:00,47.7,41.9,29.65,East,90,0.0,3.1,80,0.00,,,0.00,WUHU216HW,2013-02-05 09:45:00,
2013-02-05 01:50:00,47.7,41.9,29.65,WSW,248,1.1,3.1,80,0.00,,,0.00,WUHU216HW,2013-02-05 09:50:00,
2013-02-05 01:55:00,47.7,41.9,29.65,WSW,248,0.4,1.8,80,0.00,,,0.00,WUHU216HW,2013-02-05 09:55:00,
2013-02-05 02:00:00,47.7,41.9,29.64,ESE,113,0.2,2.5,80,0.00,,,0.00,WUHU216HW,2013-02-05 10:00:00,
2013-02-05 02:05:00,47.7,41.9,29.64,WNW,293,0.9,2.5,80,0.00,,,0.00,WUHU216HW,2013-02-05 10:05:00,
2013-02-05 02:10:00,47.7,41.9,29.64,East,90,0.4,2.5,80,0.00,,,0.00,WUHU216HW,2013-02-05 10:10:00,
2013-02-05 02:15:00,47.7,41.9,29.65,SE,135,0.2,2.5,80,0.00,,,0.00,WUHU216HW,2013-02-05 10:15:00,
2013-02-05 02:20:00,47.7,41.9,29.64,SE,135,0.4,1.3,80,0.00,,,0.00,WUHU216HW,2013-02-05 10:20:00,
2013-02-05 02:25:00,47.5,41.9,29.64,SE,135,0.2,1.8,81,0.00,,,0.00,WUHU216HW,2013-02-05 10:25:00,
2013-02-05 02:30:00,47.5,41.9,29.65,East,90,0.0,1.8,81,0.00,,,0.00,WUHU216HW,2013-02-05 10:30:00,
2013-02-05 02:35:00,47.2,41.7,29.65,East,90,0.0,1.1,81,0.00,,,0.00,WUHU216HW,2013-02-05 10:35:00,
2013-02-05 02:40:00,47.2,41.9,29.65,ESE,113,0.0,0.4,82,0.00,,,0.00,WUHU216HW,2013-02-05 10:40:00,
2013-02-05 02:45:00,47.0,41.8,29.64,ESE,113,0.0,0.2,82,0.00,,,0.00,WUHU216HW,2013-02-05 10:45:00,
2013-02-05 02:50:00,46.8,42.0,29.64,ESE,113,0.0,0.4,83,0.00,,,0.00,WUHU216HW,2013-02-05 10:50:00,
2013-02-05 02:55:00,46.6,41.8,29.64,ESE,113,0.0,0.4,83,0.00,,,0.00,WUHU216HW,2013-02-05 10:55:00,
2013-02-05 03:00:00,46.4,42.0,29.63,ESE,113,0.0,0.0,84,0.00,,,0.00,WUHU216HW,2013-02-05 11:00:00,
2013-02-05 03:05:00,46.4,42.0,29.63,ESE,113,0.0,0.0,84,0.00,,,0.00,WUHU216HW,2013-02-05 11:05:00,
2013-02-05 03:10:00,46.4,42.0,29.63,ESE,113,0.0,0.0,84,0.00,,,0.00,WUHU216HW,2013-02-05 11:10:00,
2013-02-05 03:15:00,46.3,42.0,29.63,West,270,0.0,0.0,85,0.00,,,0.00,WUHU216HW,2013-02-05 11:15:00,
2013-02-05 03:20:00,46.3,42.0,29.63,West,270,0.0,0.0,85,0.00,,,0.00,WUHU216HW,2013-02-05 11:20:00,
2013-02-05 03:25:00,46.3,42.0,29.62,WNW,293,0.0,0.0,85,0.00,,,0.00,WUHU216HW,2013-02-05 11:25:00,
2013-02-05 03:30:00,46.3,42.0,29.62,ESE,113,0.0,1.1,85,0.00,,,0.00,WUHU216HW,2013-02-05 11:30:00,
2013-02-05 03:35:00,46.3,42.0,29.62,WSW,248,0.2,1.1,85,0.00,,,0.00,WUHU216HW,2013-02-05 11:35:00,
2013-02-05 03:40:00,46.3,42.0,29.62,SE,135,0.0,0.4,85,0.00,,,0.00,WUHU216HW,2013-02-05 11:40:00,
2013-02-05 03:45:00,46.4,42.2,29.61,SE,135,0.2,0.7,85,0.00,,,0.00,WUHU216HW,2013-02-05 11:45:00,
2013-02-05 03:50:00,46.4,42.0,29.62,SE,135,0.0,1.1,84,0.00,,,0.00,WUHU216HW,2013-02-05 11:50:00,
2013-02-05 03:55:00,46.4,42.0,29.61,WSW,248,0.0,1.1,84,0.00,,,0.00,WUHU216HW,2013-02-05 11:55:00,
2013-02-05 04:00:00,46.4,42.0,29.62,ENE,68,0.0,0.2,84,0.00,,,0.00,WUHU216HW,2013-02-05 12:00:00,
2013-02-05 04:05:00,46.4,42.2,29.62,SSE,158,0.0,0.0,85,0.00,,,0.00,WUHU216HW,2013-02-05 12:05:00,
2013-02-05 04:10:00,46.4,42.2,29.62,West,270,0.0,0.2,85,0.00,,,0.00,WUHU216HW,2013-02-05 12:10:00,
2013-02-05 04:15:00,46.4,42.2,29.62,ESE,113,0.4,0.4,85,0.00,,,0.00,WUHU216HW,2013-02-05 12:15:00,
2013-02-05 04:20:00,46.4,42.2,29.62,ESE,113,0.0,0.4,85,0.00,,,0.00,WUHU216HW,2013-02-05 12:20:00,
2013-02-05 04:25:00,46.4,42.2,29.62,ESE,113,0.0,0.4,85,0.00,,,0.00,WUHU216HW,2013-02-05 12:25:00,
2013-02-05 04:30:00,46.4,42.2,29.62,ESE,113,1.1,1.8,85,0.00,,,0.00,WUHU216HW,2013-02-05 12:30:00,
2013-02-05 04:35:00,46.4,42.2,29.62,East,90,0.0,1.8,85,0.00,,,0.00,WUHU216HW,2013-02-05 12:35:00,
2013-02-05 04:40:00,46.4,42.2,29.62,East,90,0.0,1.1,85,0.00,,,0.00,WUHU216HW,2013-02-05 12:40:00,
2013-02-05 04:45:00,46.3,42.0,29.62,East,90,0.0,1.1,85,0.00,,,0.00,WUHU216HW,2013-02-05 12:45:00,
2013-02-05 04:50:00,46.3,42.0,29.62,East,90,0.0,0.4,85,0.00,,,0.00,WUHU216HW,2013-02-05 12:50:00,
2013-02-05 04:55:00,46.1,42.1,29.61,West,270,0.0,0.4,86,0.00,,,0.00,WUHU216HW,2013-02-05 12:55:00,
2013-02-05 05:00:00,46.1,42.5,29.62,West,270,0.2,0.4,87,0.00,,,0.00,WUHU216HW,2013-02-05 13:00:00,
2013-02-05 05:05:00,45.9,42.3,29.62,West,270,0.0,0.4,87,0.00,,,0.00,WUHU216HW,2013-02-05 13:05:00,
2013-02-05 05:10:00,45.7,42.1,29.62,West,270,0.0,0.4,87,0.00,,,0.00,WUHU216HW,2013-02-05 13:10:00,
2013-02-05 05:15:00,45.7,42.1,29.62,West,270,0.0,0.0,87,0.00,,,0.00,WUHU216HW,2013-02-05 13:15:00,
2013-02-05 05:20:00,45.5,42.2,29.62,West,270,0.0,0.0,88,0.00,,,0.00,WUHU216HW,2013-02-05 13:20:00,
2013-02-05 05:25:00,45.5,42.2,29.62,West,270,0.0,0.0,88,0.00,,,0.00,WUHU216HW,2013-02-05 13:25:00,
2013-02-05 05:30:00,45.4,42.0,29.62,West,270,0.0,0.0,88,0.00,,,0.00,WUHU216HW,2013-02-05 13:30:00,
2013-02-05 05:35:00,45.4,42.0,29.62,West,270,0.0,0.0,88,0.00,,,0.00,WUHU216HW,2013-02-05 13:35:00,
2013-02-05 05:40:00,45.4,42.0,29.61,West,270,0.0,0.0,88,0.00,,,0.00,WUHU216HW,2013-02-05 13:40:00,
2013-02-05 05:45:00,45.2,41.9,29.61,West,270,0.0,0.0,88,0.00,,,0.00,WUHU216HW,2013-02-05 13:45:00,
2013-02-05 05:50:00,45.2,42.2,29.61,West,270,0.0,0.0,89,0.00,,,0.00,WUHU216HW,2013-02-05 13:50:00,
2013-02-05 05:55:00,45.2,42.2,29.61,West,270,0.0,0.0,89,0.00,,,0.00,WUHU216HW,2013-02-05 13:55:00,
2013-02-05 06:00:00,45.2,42.5,29.60,West,270,0.0,0.0,90,0.00,,,0.00,WUHU216HW,2013-02-05 14:00:00,
2013-02-05 06:05:00,45.0,42.3,29.60,West,270,0.0,0.0,90,0.00,,,0.00,WUHU216HW,2013-02-05 14:05:00,
2013-02-05 06:10:00,45.0,42.6,29.60,West,270,0.0,0.0,91,0.00,,,0.00,WUHU216HW,2013-02-05 14:10:00,
2013-02-05 06:15:00,45.0,42.3,29.60,West,270,0.0,0.0,90,0.00,,,0.00,WUHU216HW,2013-02-05 14:15:00,
2013-02-05 06:20:00,45.0,42.6,29.60,West,270,0.0,0.0,91,0.00,,,0.00,WUHU216HW,2013-02-05 14:20:00,
2013-02-05 06:25:00,44.8,42.4,29.61,West,270,0.0,0.0,91,0.00,,,0.00,WUHU216HW,2013-02-05 14:25:00,
2013-02-05 06:30:00,44.8,42.4,29.60,West,270,0.0,0.0,91,0.00,,,0.00,WUHU216HW,2013-02-05 14:30:00,
2013-02-05 06:35:00,44.8,42.4,29.60,WSW,248,0.0,0.0,91,0.00,,,0.00,WUHU216HW,2013-02-05 14:35:00,
2013-02-05 06:40:00,45.0,42.6,29.60,WSW,248,0.0,0.0,91,0.00,,,0.00,WUHU216HW,2013-02-05 14:40:00,
2013-02-05 06:45:00,45.0,42.8,29.61,West,270,0.0,0.9,92,0.00,,,0.00,WUHU216HW,2013-02-05 14:45:00,
2013-02-05 06:50:00,45.0,42.6,29.61,West,270,0.4,0.9,91,0.00,,,0.00,WUHU216HW,2013-02-05 14:50:00,
2013-02-05 06:55:00,45.0,42.6,29.61,West,270,0.0,0.7,91,0.00,,,0.00,WUHU216HW,2013-02-05 14:55:00,
2013-02-05 07:00:00,45.0,42.8,29.61,West,270,0.0,0.4,92,0.00,,,0.00,WUHU216HW,2013-02-05 15:00:00,
2013-02-05 07:05:00,45.0,42.6,29.60,NW,315,0.0,0.4,91,0.00,,,0.00,WUHU216HW,2013-02-05 15:05:00,
2013-02-05 07:10:00,45.0,42.6,29.60,West,270,0.0,0.4,91,0.00,,,0.00,WUHU216HW,2013-02-05 15:10:00,
2013-02-05 07:15:00,45.0,42.6,29.61,West,270,0.2,0.4,91,0.00,,,0.00,WUHU216HW,2013-02-05 15:15:00,
2013-02-05 07:20:00,45.0,42.6,29.61,ESE,113,0.0,1.8,91,0.00,,,0.00,WUHU216HW,2013-02-05 15:20:00,
2013-02-05 07:25:00,45.0,42.6,29.61,SSE,158,0.2,1.8,91,0.00,,,0.00,WUHU216HW,2013-02-05 15:25:00,
2013-02-05 07:30:00,45.0,42.6,29.61,ENE,68,0.0,1.1,91,0.00,,,0.00,WUHU216HW,2013-02-05 15:30:00,
2013-02-05 07:35:00,45.0,42.6,29.61,ENE,68,0.2,1.1,91,0.00,,,0.00,WUHU216HW,2013-02-05 15:35:00,
2013-02-05 07:40:00,45.0,42.6,29.61,SE,135,1.1,1.1,91,0.00,,,0.00,WUHU216HW,2013-02-05 15:40:00,
2013-02-05 07:45:00,45.2,42.8,29.61,WNW,293,0.0,1.1,91,0.00,,,0.00,WUHU216HW,2013-02-05 15:45:00,
2013-02-05 07:50:00,45.2,43.0,29.61,ESE,113,0.0,1.1,92,0.00,,,0.00,WUHU216HW,2013-02-05 15:50:00,
2013-02-05 07:55:00,45.2,43.0,29.61,West,270,0.4,1.1,92,0.00,,,0.00,WUHU216HW,2013-02-05 15:55:00,
2013-02-05 08:00:00,45.2,43.0,29.62,ESE,113,0.0,1.8,92,0.00,,,0.00,WUHU216HW,2013-02-05 16:00:00,
2013-02-05 08:05:00,45.2,42.8,29.62,East,90,1.1,1.8,91,0.00,,,0.00,WUHU216HW,2013-02-05 16:05:00,
2013-02-05 08:10:00,45.4,42.9,29.61,NNW,338,1.1,1.3,91,0.00,,,0.00,WUHU216HW,2013-02-05 16:10:00,
2013-02-05 08:15:00,45.4,43.2,29.61,SE,135,1.8,2.9,92,0.00,,,0.00,WUHU216HW,2013-02-05 16:15:00,
2013-02-05 08:20:00,45.4,42.9,29.61,SSE,158,0.0,2.9,91,0.00,,,0.00,WUHU216HW,2013-02-05 16:20:00,
2013-02-05 08:25:00,45.4,43.2,29.62,SW,225,0.4,2.0,92,0.00,,,0.00,WUHU216HW,2013-02-05 16:25:00,
2013-02-05 08:30:00,45.4,43.2,29.62,East,90,1.1,1.6,92,0.00,,,0.00,WUHU216HW,2013-02-05 16:30:00,
2013-02-05 08:35:00,45.5,43.1,29.62,WSW,248,0.0,1.6,91,0.00,,,0.00,WUHU216HW,2013-02-05 16:35:00,
2013-02-05 08:40:00,45.9,43.7,29.62,West,270,0.2,1.6,92,0.00,,,0.00,WUHU216HW,2013-02-05 16:40:00,
2013-02-05 08:45:00,46.3,43.8,29.62,East,90,0.2,1.6,91,0.00,,,0.00,WUHU216HW,2013-02-05 16:45:00,
2013-02-05 08:50:00,46.8,44.4,29.62,WNW,293,0.0,1.8,91,0.00,,,0.00,WUHU216HW,2013-02-05 16:50:00,
2013-02-05 08:55:00,47.2,44.7,29.62,ESE,113,2.2,2.2,91,0.00,,,0.00,WUHU216HW,2013-02-05 16:55:00,
2013-02-05 09:00:00,47.2,44.5,29.62,WSW,248,0.7,2.5,90,0.00,,,0.00,WUHU216HW,2013-02-05 17:00:00,
2013-02-05 09:05:00,47.2,44.5,29.62,North,0,0.4,3.1,90,0.00,,,0.00,WUHU216HW,2013-02-05 17:05:00,
2013-02-05 09:10:00,47.2,44.5,29.63,WNW,293,0.4,3.1,90,0.00,,,0.00,WUHU216HW,2013-02-05 17:10:00,
2013-02-05 09:15:00,47.2,44.5,29.63,NNE,23,0.2,2.5,90,0.00,,,0.00,WUHU216HW,2013-02-05 17:15:00,
2013-02-05 09:20:00,47.2,44.7,29.63,ESE,113,0.2,1.8,91,0.00,,,0.00,WUHU216HW,2013-02-05 17:20:00,
2013-02-05 09:25:00,47.2,44.5,29.63,NE,45,1.1,2.0,90,0.00,,,0.00,WUHU216HW,2013-02-05 17:25:00,
2013-02-05 09:30:00,46.8,44.4,29.63,East,90,0.4,2.0,91,0.00,,,0.00,WUHU216HW,2013-02-05 17:30:00,
2013-02-05 09:35:00,46.8,44.4,29.63,ESE,113,1.6,2.0,91,0.00,,,0.00,WUHU216HW,2013-02-05 17:35:00,
2013-02-05 09:40:00,46.8,44.4,29.63,West,270,0.0,1.8,91,0.00,,,0.00,WUHU216HW,2013-02-05 17:40:00,
2013-02-05 09:45:00,46.8,44.6,29.63,SW,225,0.9,1.6,92,0.00,,,0.00,WUHU216HW,2013-02-05 17:45:00,
2013-02-05 09:50:00,46.8,44.6,29.64,ESE,113,0.9,1.8,92,0.00,,,0.00,WUHU216HW,2013-02-05 17:50:00,
2013-02-05 09:55:00,47.0,45.1,29.64,ESE,113,0.4,1.8,93,0.00,,,0.00,WUHU216HW,2013-02-05 17:55:00,
2013-02-05 10:00:00,47.2,45.3,29.64,ESE,113,0.9,1.8,93,0.00,,,0.00,WUHU216HW,2013-02-05 18:00:00,
2013-02-05 10:05:00,47.5,45.6,29.64,East,90,0.9,2.5,93,0.00,,,0.00,WUHU216HW,2013-02-05 18:05:00,
2013-02-05 10:10:00,49.3,47.1,29.64,South,180,1.3,2.5,92,0.00,,,0.00,WUHU216HW,2013-02-05 18:10:00,
2013-02-05 10:15:00,50.9,47.8,29.64,WNW,293,1.3,2.9,89,0.00,,,0.00,WUHU216HW,2013-02-05 18:15:00,
2013-02-05 10:20:00,52.0,47.9,29.63,SSW,203,1.1,2.9,86,0.00,,,0.00,WUHU216HW,2013-02-05 18:20:00,
2013-02-05 10:25:00,52.6,48.4,29.63,NE,45,0.0,3.4,86,0.00,,,0.00,WUHU216HW,2013-02-05 18:25:00,
2013-02-05 10:30:00,54.4,48.3,29.64,ESE,113,3.1,3.4,80,0.00,,,0.00,WUHU216HW,2013-02-05 18:30:00,
2013-02-05 10:35:00,54.9,49.8,29.63,ESE,113,0.4,3.1,83,0.00,,,0.00,WUHU216HW,2013-02-05 18:35:00,
2013-02-05 10:40:00,55.3,48.5,29.63,WSW,248,1.1,2.9,78,0.00,,,0.00,WUHU216HW,2013-02-05 18:40:00,
2013-02-05 10:45:00,55.4,49.0,29.64,SSW,203,0.4,3.1,79,0.00,,,0.00,WUHU216HW,2013-02-05 18:45:00,
2013-02-05 10:50:00,56.2,49.7,29.64,ENE,68,0.9,3.1,79,0.00,,,0.00,WUHU216HW,2013-02-05 18:50:00,
2013-02-05 10:55:00,57.1,49.9,29.64,East,90,1.1,1.3,77,0.00,,,0.00,WUHU216HW,2013-02-05 18:55:00,
2013-02-05 11:00:00,55.3,48.2,29.64,ESE,113,2.5,2.5,77,0.00,,,0.00,WUHU216HW,2013-02-05 19:00:00,
2013-02-05 11:05:00,53.6,47.0,29.64,South,180,1.8,2.7,78,0.00,,,0.00,WUHU216HW,2013-02-05 19:05:00,
2013-02-05 11:10:00,52.6,46.6,29.64,SE,135,0.0,2.9,80,0.00,,,0.00,WUHU216HW,2013-02-05 19:10:00,
2013-02-05 11:15:00,52.0,46.7,29.64,West,270,1.6,3.1,82,0.00,,,0.00,WUHU216HW,2013-02-05 19:15:00,
2013-02-05 11:20:00,52.2,47.5,29.64,ENE,68,0.0,3.1,84,0.00,,,0.00,WUHU216HW,2013-02-05 19:20:00,
2013-02-05 11:25:00,51.8,47.2,29.64,ESE,113,1.6,2.2,84,0.00,,,0.00,WUHU216HW,2013-02-05 19:25:00,
2013-02-05 11:30:00,51.5,47.1,29.63,ENE,68,0.4,2.2,85,0.00,,,0.00,WUHU216HW,2013-02-05 19:30:00,
2013-02-05 11:35:00,51.3,47.2,29.64,ESE,113,0.4,2.2,86,0.00,,,0.00,WUHU216HW,2013-02-05 19:35:00,
2013-02-05 11:40:00,50.9,46.8,29.64,West,270,0.4,1.8,86,0.00,,,0.00,WUHU216HW,2013-02-05 19:40:00,
2013-02-05 11:45:00,51.1,47.4,29.64,WNW,293,0.4,1.1,87,0.00,,,0.00,WUHU216HW,2013-02-05 19:45:00,
2013-02-05 11:50:00,51.1,47.4,29.63,WNW,293,0.0,1.1,87,0.00,,,0.00,WUHU216HW,2013-02-05 19:50:00,
2013-02-05 11:55:00,50.8,47.0,29.63,WNW,293,0.2,2.7,87,0.00,,,0.00,WUHU216HW,2013-02-05 19:55:00,
2013-02-05 12:00:00,50.8,47.0,29.63,ESE,113,0.0,2.7,87,0.00,,,0.00,WUHU216HW,2013-02-05 20:00:00,
2013-02-05 12:05:00,50.8,47.3,29.63,WNW,293,0.2,1.3,88,0.00,,,0.00,WUHU216HW,2013-02-05 20:05:00,
2013-02-05 12:10:00,50.9,47.8,29.63,West,270,0.2,1.1,89,0.00,,,0.00,WUHU216HW,2013-02-05 20:10:00,
2013-02-05 12:15:00,51.1,48.0,29.63,WSW,248,0.0,0.7,89,0.00,,,0.00,WUHU216HW,2013-02-05 20:15:00,
2013-02-05 12:20:00,51.1,48.0,29.63,NE,45,0.0,0.7,89,0.00,,,0.00,WUHU216HW,2013-02-05 20:20:00,
2013-02-05 12:25:00,50.9,47.8,29.63,WNW,293,0.0,0.7,89,0.00,,,0.00,WUHU216HW,2013-02-05 20:25:00,
2013-02-05 12:30:00,50.8,47.6,29.63,West,270,0.4,1.1,89,0.00,,,0.00,WUHU216HW,2013-02-05 20:30:00,
2013-02-05 12:35:00,50.6,47.1,29.63,West,270,0.4,1.1,88,0.00,,,0.00,WUHU216HW,2013-02-05 20:35:00,
2013-02-05 12:40:00,50.2,46.7,29.63,NE,45,0.2,1.3,88,0.00,,,0.00,WUHU216HW,2013-02-05 20:40:00,
2013-02-05 12:45:00,50.0,46.5,29.63,West,270,1.3,1.3,88,0.00,,,0.00,WUHU216HW,2013-02-05 20:45:00,
2013-02-05 12:50:00,50.0,46.5,29.63,West,270,0.0,1.3,88,0.00,,,0.00,WUHU216HW,2013-02-05 20:50:00,
2013-02-05 12:55:00,50.0,47.2,29.64,West,270,0.2,0.9,90,0.00,,,0.00,WUHU216HW,2013-02-05 20:55:00,
2013-02-05 13:00:00,49.9,46.7,29.63,ESE,113,0.0,1.3,89,0.00,,,0.00,WUHU216HW,2013-02-05 21:00:00,
2013-02-05 13:05:00,49.9,47.0,29.63,NW,315,0.0,1.3,90,0.00,,,0.00,WUHU216HW,2013-02-05 21:05:00,
2013-02-05 13:10:00,50.0,47.2,29.63,West,270,0.4,0.9,90,0.00,,,0.00,WUHU216HW,2013-02-05 21:10:00,
2013-02-05 13:15:00,50.8,47.9,29.63,West,270,0.4,1.3,90,0.00,,,0.00,WUHU216HW,2013-02-05 21:15:00,
2013-02-05 13:20:00,51.1,48.0,29.62,NE,45,0.0,1.6,89,0.00,,,0.00,WUHU216HW,2013-02-05 21:20:00,
2013-02-05 13:25:00,51.1,47.6,29.62,West,270,0.4,1.6,88,0.00,,,0.00,WUHU216HW,2013-02-05 21:25:00,
2013-02-05 13:30:00,50.9,47.2,29.62,West,270,0.4,1.1,87,0.00,,,0.00,WUHU216HW,2013-02-05 21:30:00,
2013-02-05 13:35:00,50.8,46.4,29.62,West,270,0.7,2.0,85,0.00,,,0.00,WUHU216HW,2013-02-05 21:35:00,
2013-02-05 13:40:00,50.8,46.4,29.62,West,270,0.2,2.0,85,0.00,,,0.00,WUHU216HW,2013-02-05 21:40:00,
2013-02-05 13:45:00,50.9,46.5,29.62,WSW,248,0.2,1.8,85,0.00,,,0.00,WUHU216HW,2013-02-05 21:45:00,
2013-02-05 13:50:00,51.1,46.5,29.62,West,270,0.7,2.5,84,0.00,,,0.00,WUHU216HW,2013-02-05 21:50:00,
2013-02-05 13:55:00,51.5,46.4,29.62,West,270,1.1,2.5,83,0.00,,,0.00,WUHU216HW,2013-02-05 21:55:00,
2013-02-05 14:00:00,51.5,46.4,29.62,WSW,248,0.2,1.8,83,0.00,,,0.00,WUHU216HW,2013-02-05 22:00:00,
2013-02-05 14:05:00,51.8,46.5,29.62,East,90,0.4,2.7,82,0.00,,,0.00,WUHU216HW,2013-02-05 22:05:00,
2013-02-05 14:10:00,52.0,46.7,29.62,East,90,0.0,2.7,82,0.00,,,0.00,WUHU216HW,2013-02-05 22:10:00,
2013-02-05 14:15:00,52.2,46.3,29.62,ESE,113,1.1,1.8,80,0.00,,,0.00,WUHU216HW,2013-02-05 22:15:00,
2013-02-05 14:20:00,52.0,45.7,29.62,WSW,248,0.4,2.2,79,0.00,,,0.00,WUHU216HW,2013-02-05 22:20:00,
2013-02-05 14:25:00,52.2,45.9,29.62,SE,135,0.0,2.2,79,0.00,,,0.00,WUHU216HW,2013-02-05 22:25:00,
2013-02-05 14:30:00,52.6,46.6,29.62,WNW,293,0.2,1.3,80,0.00,,,0.00,WUHU216HW,2013-02-05 22:30:00,
2013-02-05 14:35:00,52.6,45.9,29.62,WNW,293,1.1,1.8,78,0.00,,,0.00,WUHU216HW,2013-02-05 22:35:00,
2013-02-05 14:40:00,52.7,46.1,29.62,SE,135,0.7,2.2,78,0.00,,,0.00,WUHU216HW,2013-02-05 22:40:00,
2013-02-05 14:45:00,52.6,45.9,29.62,ESE,113,0.7,2.5,78,0.00,,,0.00,WUHU216HW,2013-02-05 22:45:00,
2013-02-05 14:50:00,52.9,46.3,29.63,WNW,293,0.9,2.5,78,0.00,,,0.00,WUHU216HW,2013-02-05 22:50:00,
2013-02-05 14:55:00,52.9,45.5,29.63,SE,135,2.5,2.7,76,0.00,,,0.00,WUHU216HW,2013-02-05 22:55:00,
2013-02-05 15:00:00,52.6,45.9,29.63,SE,135,0.4,2.7,78,0.00,,,0.00,WUHU216HW,2013-02-05 23:00:00,
2013-02-05 15:05:00,52.7,46.4,29.63,West,270,0.7,2.5,79,0.00,,,0.00,WUHU216HW,2013-02-05 23:05:00,
2013-02-05 15:10:00,52.9,46.3,29.63,East,90,0.4,1.8,78,0.00,,,0.00,WUHU216HW,2013-02-05 23:10:00,
2013-02-05 15:15:00,52.7,46.1,29.63,West,270,0.4,1.8,78,0.00,,,0.00,WUHU216HW,2013-02-05 23:15:00,
2013-02-05 15:20:00,52.4,45.7,29.63,WNW,293,1.8,2.2,78,0.00,,,0.00,WUHU216HW,2013-02-05 23:20:00,
2013-02-05 15:25:00,52.2,45.5,29.63,WNW,293,0.2,2.2,78,0.00,,,0.00,WUHU216HW,2013-02-05 23:25:00,
2013-02-05 15:30:00,52.2,45.5,29.63,NW,315,0.0,1.8,78,0.00,,,0.00,WUHU216HW,2013-02-05 23:30:00,
2013-02-05 15:35:00,52.2,45.9,29.63,NNW,338,0.4,1.8,79,0.00,,,0.00,WUHU216HW,2013-02-05 23:35:00,
2013-02-05 15:40:00,52.2,45.5,29.63,WNW,293,1.1,1.6,78,0.00,,,0.00,WUHU216HW,2013-02-05 23:40:00,
2013-02-05 15:45:00,52.2,45.5,29.63,SE,135,1.1,1.6,78,0.00,,,0.00,WUHU216HW,2013-02-05 23:45:00,
2013-02-05 15:50:00,52.0,45.4,29.63,West,270,2.0,3.1,78,0.00,,,0.00,WUHU216HW,2013-02-05 23:50:00,
2013-02-05 15:55:00,51.8,45.2,29.63,WSW,248,1.1,3.1,78,0.00,,,0.00,WUHU216HW,2013-02-05 23:55:00,
2013-02-05 16:00:00,51.8,45.9,29.63,East,90,0.9,2.5,80,0.00,,,0.00,WUHU216HW,2013-02-06 00:00:00,
2013-02-05 16:05:00,51.7,45.0,29.63,West,270,1.3,3.6,78,0.00,,,0.00,WUHU216HW,2013-02-06 00:05:00,
2013-02-05 16:10:00,51.3,44.4,29.64,ESE,113,0.4,3.8,77,0.00,,,0.00,WUHU216HW,2013-02-06 00:10:00,
2013-02-05 16:15:00,50.9,44.3,29.64,North,0,0.7,3.8,78,0.00,,,0.00,WUHU216HW,2013-02-06 00:15:00,
2013-02-05 16:20:00,50.8,44.1,29.64,WSW,248,0.4,2.5,78,0.00,,,0.00,WUHU216HW,2013-02-06 00:20:00,
2013-02-05 16:25:00,50.4,44.1,29.65,WSW,248,1.1,2.2,79,0.00,,,0.00,WUHU216HW,2013-02-06 00:25:00,
2013-02-05 16:30:00,49.9,44.6,29.65,NW,315,0.7,3.4,82,0.00,,,0.00,WUHU216HW,2013-02-06 00:30:00,
2013-02-05 16:35:00,49.3,44.3,29.65,NNW,338,2.0,3.4,83,0.00,,,0.00,WUHU216HW,2013-02-06 00:35:00,
2013-02-05 16:40:00,49.0,44.0,29.66,West,270,0.9,2.2,83,0.00,,,0.00,WUHU216HW,2013-02-06 00:40:00,
2013-02-05 16:45:00,48.6,44.3,29.66,South,180,0.7,2.2,85,0.00,,,0.00,WUHU216HW,2013-02-06 00:45:00,
2013-02-05 16:50:00,48.2,43.9,29.66,WSW,248,0.2,1.8,85,0.00,,,0.00,WUHU216HW,2013-02-06 00:50:00,
2013-02-05 16:55:00,47.9,43.9,29.66,ESE,113,0.0,1.3,86,0.00,,,0.00,WUHU216HW,2013-02-06 00:55:00,
2013-02-05 17:00:00,47.5,44.2,29.66,West,270,0.4,1.8,88,0.00,,,0.00,WUHU216HW,2013-02-06 01:00:00,
2013-02-05 17:05:00,47.3,44.4,29.66,West,270,0.9,1.8,89,0.00,,,0.00,WUHU216HW,2013-02-06 01:05:00,
2013-02-05 17:10:00,47.2,43.8,29.65,NNW,338,0.0,0.9,88,0.00,,,0.00,WUHU216HW,2013-02-06 01:10:00,
2013-02-05 17:15:00,47.0,43.7,29.66,West,270,0.0,0.9,88,0.00,,,0.00,WUHU216HW,2013-02-06 01:15:00,
2013-02-05 17:20:00,47.0,43.7,29.66,WNW,293,0.0,0.9,88,0.00,,,0.00,WUHU216HW,2013-02-06 01:20:00,
2013-02-05 17:25:00,46.8,43.5,29.66,WNW,293,0.0,0.2,88,0.00,,,0.00,WUHU216HW,2013-02-06 01:25:00,
2013-02-05 17:30:00,46.8,43.5,29.66,WNW,293,0.0,0.2,88,0.00,,,0.00,WUHU216HW,2013-02-06 01:30:00,
2013-02-05 17:35:00,46.6,43.3,29.66,ESE,113,0.0,0.4,88,0.00,,,0.00,WUHU216HW,2013-02-06 01:35:00,
2013-02-05 17:40:00,46.6,43.3,29.66,ESE,113,0.0,0.4,88,0.00,,,0.00,WUHU216HW,2013-02-06 01:40:00,
2013-02-05 17:45:00,46.6,43.3,29.67,ESE,113,0.0,0.9,88,0.00,,,0.00,WUHU216HW,2013-02-06 01:45:00,
2013-02-05 17:50:00,46.6,43.3,29.66,SE,135,0.0,0.9,88,0.00,,,0.00,WUHU216HW,2013-02-06 01:50:00,
2013-02-05 17:55:00,46.6,43.7,29.66,SE,135,0.0,0.4,89,0.00,,,0.00,WUHU216HW,2013-02-06 01:55:00,
2013-02-05 18:00:00,46.6,43.7,29.66,SE,135,0.0,0.0,89,0.00,,,0.00,WUHU216HW,2013-02-06 02:00:00,
2013-02-05 18:05:00,46.4,43.5,29.67,East,90,0.4,1.1,89,0.00,,,0.00,WUHU216HW,2013-02-06 02:05:00,
2013-02-05 18:10:00,46.6,43.9,29.67,WNW,293,0.4,1.1,90,0.00,,,0.00,WUHU216HW,2013-02-06 02:10:00,
2013-02-05 18:15:00,46.4,43.7,29.67,West,270,0.4,1.1,90,0.00,,,0.00,WUHU216HW,2013-02-06 02:15:00,
2013-02-05 18:20:00,46.3,43.3,29.67,West,270,0.4,1.3,89,0.00,,,0.00,WUHU216HW,2013-02-06 02:20:00,
2013-02-05 18:25:00,46.1,43.1,29.67,West,270,0.9,2.2,89,0.00,,,0.00,WUHU216HW,2013-02-06 02:25:00,
2013-02-05 18:31:00,46.1,42.8,29.67,ENE,68,0.0,2.2,88,0.00,,,0.00,WUHU216HW,2013-02-06 02:31:00,
2013-02-05 18:36:00,45.9,42.6,29.67,NE,45,0.0,1.8,88,0.00,,,0.00,WUHU216HW,2013-02-06 02:36:00,
2013-02-05 18:40:00,45.7,42.4,29.67,WSW,248,0.0,1.1,88,0.00,,,0.00,WUHU216HW,2013-02-06 02:40:00,
2013-02-05 18:45:00,45.7,42.4,29.68,WNW,293,0.0,2.5,88,0.00,,,0.00,WUHU216HW,2013-02-06 02:45:00,
2013-02-05 18:50:00,45.4,42.4,29.68,NW,315,0.0,2.5,89,0.00,,,0.00,WUHU216HW,2013-02-06 02:50:00,
2013-02-05 18:56:00,45.4,42.4,29.68,SSE,158,0.4,1.1,89,0.00,,,0.00,WUHU216HW,2013-02-06 02:56:00,
2013-02-05 19:01:00,45.2,42.2,29.68,West,270,0.0,0.9,89,0.00,,,0.00,WUHU216HW,2013-02-06 03:01:00,
2013-02-05 19:06:00,45.0,42.0,29.68,WNW,293,0.0,1.1,89,0.00,,,0.00,WUHU216HW,2013-02-06 03:06:00,
2013-02-05 19:11:00,45.0,42.3,29.68,West,270,1.1,1.1,90,0.00,,,0.00,WUHU216HW,2013-02-06 03:11:00,
2013-02-05 19:16:00,45.0,42.3,29.69,WSW,248,0.2,1.1,90,0.00,,,0.00,WUHU216HW,2013-02-06 03:16:00,
2013-02-05 19:21:00,44.8,42.1,29.69,WNW,293,0.0,1.1,90,0.00,,,0.00,WUHU216HW,2013-02-06 03:21:00,
2013-02-05 19:26:00,44.8,42.1,29.69,West,270,0.0,1.1,90,0.00,,,0.00,WUHU216HW,2013-02-06 03:26:00,
2013-02-05 19:31:00,45.0,42.3,29.69,SE,135,0.0,1.1,90,0.00,,,0.00,WUHU216HW,2013-02-06 03:31:00,
2013-02-05 19:36:00,45.0,42.3,29.69,ESE,113,0.0,1.1,90,0.00,,,0.00,WUHU216HW,2013-02-06 03:36:00,
2013-02-05 19:41:00,45.0,42.0,29.69,NW,315,0.0,0.9,89,0.00,,,0.00,WUHU216HW,2013-02-06 03:41:00,
2013-02-05 19:46:00,44.8,41.9,29.69,SE,135,0.2,1.1,89,0.00,,,0.00,WUHU216HW,2013-02-06 03:46:00,
2013-02-05 19:51:00,44.8,41.9,29.69,East,90,0.0,1.6,89,0.00,,,0.00,WUHU216HW,2013-02-06 03:51:00,
2013-02-05 19:56:00,44.6,41.9,29.70,WNW,293,0.4,1.6,90,0.00,,,0.00,WUHU216HW,2013-02-06 03:56:00,
2013-02-05 20:01:00,44.6,41.7,29.70,WNW,293,0.0,0.4,89,0.00,,,0.00,WUHU216HW,2013-02-06 04:01:00,
2013-02-05 20:06:00,44.5,41.5,29.70,ESE,113,0.0,0.7,89,0.00,,,0.00,WUHU216HW,2013-02-06 04:06:00,
2013-02-05 20:11:00,44.5,41.5,29.70,ESE,113,0.0,0.7,89,0.00,,,0.00,WUHU216HW,2013-02-06 04:11:00,
2013-02-05 20:16:00,44.3,41.3,29.70,West,270,0.0,0.4,89,0.00,,,0.00,WUHU216HW,2013-02-06 04:16:00,
2013-02-05 20:21:00,44.3,41.3,29.70,West,270,0.0,0.4,89,0.00,,,0.00,WUHU216HW,2013-02-06 04:21:00,
2013-02-05 20:26:00,44.1,41.1,29.71,West,270,0.0,0.2,89,0.00,,,0.00,WUHU216HW,2013-02-06 04:26:00,
2013-02-05 20:31:00,44.1,41.1,29.71,West,270,0.0,0.0,89,0.00,,,0.00,WUHU216HW,2013-02-06 04:31:00,
2013-02-05 20:36:00,43.7,40.8,29.71,West,270,0.0,0.0,89,0.00,,,0.00,WUHU216HW,2013-02-06 04:36:00,
2013-02-05 20:41:00,43.6,40.6,29.71,West,270,0.0,0.0,89,0.00,,,0.00,WUHU216HW,2013-02-06 04:41:00,
2013-02-05 20:46:00,43.4,40.7,29.71,West,270,0.0,0.2,90,0.00,,,0.00,WUHU216HW,2013-02-06 04:46:00,
2013-02-05 20:51:00,43.2,40.5,29.71,West,270,0.0,0.2,90,0.00,,,0.00,WUHU216HW,2013-02-06 04:51:00,
2013-02-05 20:56:00,43.2,40.5,29.71,West,270,0.0,0.0,90,0.00,,,0.00,WUHU216HW,2013-02-06 04:56:00,
2013-02-05 21:00:00,43.2,40.5,29.72,West,270,0.0,0.2,90,0.00,,,0.00,WUHU216HW,2013-02-06 05:00:00,
2013-02-05 21:05:00,43.2,40.5,29.72,West,270,0.0,0.2,90,0.00,,,0.00,WUHU216HW,2013-02-06 05:05:00,
2013-02-05 21:10:00,43.2,40.5,29.72,West,270,0.0,0.4,90,0.00,,,0.00,WUHU216HW,2013-02-06 05:10:00,
2013-02-05 21:15:00,42.8,40.1,29.72,West,270,0.0,0.4,90,0.00,,,0.00,WUHU216HW,2013-02-06 05:15:00,
2013-02-05 21:20:00,42.8,40.1,29.72,West,270,0.0,0.0,90,0.00,,,0.00,WUHU216HW,2013-02-06 05:20:00,
2013-02-05 21:25:00,42.7,40.0,29.72,West,270,0.0,0.0,90,0.00,,,0.00,WUHU216HW,2013-02-06 05:25:00,
2013-02-05 21:30:00,42.7,40.0,29.72,West,270,0.0,0.0,90,0.00,,,0.00,WUHU216HW,2013-02-06 05:30:00,
2013-02-05 21:35:00,42.7,40.0,29.72,West,270,0.0,0.0,90,0.00,,,0.00,WUHU216HW,2013-02-06 05:35:00,
2013-02-05 21:40:00,42.7,40.0,29.73,West,270,0.0,0.0,90,0.00,,,0.00,WUHU216HW,2013-02-06 05:40:00,
2013-02-05 21:45:00,42.7,40.2,29.73,West,270,0.0,0.0,91,0.00,,,0.00,WUHU216HW,2013-02-06 05:45:00,
2013-02-05 21:50:00,43.0,41.1,29.73,WSW,248,0.0,0.9,93,0.00,,,0.00,WUHU216HW,2013-02-06 05:50:00,
2013-02-05 21:55:00,43.7,41.9,29.73,ESE,113,0.4,0.9,93,0.00,,,0.00,WUHU216HW,2013-02-06 05:55:00,
2013-02-05 22:00:00,44.3,42.4,29.73,WNW,293,0.0,0.7,93,0.00,,,0.00,WUHU216HW,2013-02-06 06:00:00,
2013-02-05 22:05:00,44.3,42.4,29.73,West,270,0.0,0.9,93,0.00,,,0.00,WUHU216HW,2013-02-06 06:05:00,
2013-02-05 22:10:00,44.3,42.1,29.73,West,270,0.0,0.9,92,0.00,,,0.00,WUHU216HW,2013-02-06 06:10:00,
2013-02-05 22:15:00,44.3,42.1,29.73,East,90,0.0,0.9,92,0.00,,,0.00,WUHU216HW,2013-02-06 06:15:00,
2013-02-05 22:20:00,44.3,42.1,29.73,West,270,0.2,0.9,92,0.00,,,0.00,WUHU216HW,2013-02-06 06:20:00,
2013-02-05 22:25:00,44.5,42.3,29.72,SE,135,0.4,1.1,92,0.00,,,0.00,WUHU216HW,2013-02-06 06:25:00,
2013-02-05 22:30:00,44.6,42.2,29.72,SSE,158,0.2,1.8,91,0.00,,,0.00,WUHU216HW,2013-02-06 06:30:00,
2013-02-05 22:35:00,44.6,42.2,29.72,WNW,293,0.4,1.8,91,0.00,,,0.00,WUHU216HW,2013-02-06 06:35:00,
2013-02-05 22:40:00,44.6,42.2,29.72,NNW,338,0.0,1.8,91,0.00,,,0.00,WUHU216HW,2013-02-06 06:40:00,
2013-02-05 22:45:00,44.5,42.0,29.73,West,270,0.4,1.1,91,0.00,,,0.00,WUHU216HW,2013-02-06 06:45:00,
2013-02-05 22:50:00,44.5,41.8,29.73,ESE,113,1.3,2.5,90,0.00,,,0.00,WUHU216HW,2013-02-06 06:50:00,
2013-02-05 22:55:00,44.5,41.8,29.73,West,270,0.4,2.5,90,0.00,,,0.00,WUHU216HW,2013-02-06 06:55:00,
2013-02-05 23:00:00,44.3,41.6,29.73,WSW,248,0.2,1.8,90,0.00,,,0.00,WUHU216HW,2013-02-06 07:00:00,
2013-02-05 23:05:00,44.3,41.6,29.73,ESE,113,0.2,1.8,90,0.00,,,0.00,WUHU216HW,2013-02-06 07:05:00,
2013-02-05 23:10:00,44.1,41.4,29.73,East,90,0.2,1.1,90,0.00,,,0.00,WUHU216HW,2013-02-06 07:10:00,
2013-02-05 23:15:00,43.9,41.2,29.73,WNW,293,0.4,1.3,90,0.00,,,0.00,WUHU216HW,2013-02-06 07:15:00,
2013-02-05 23:20:00,43.9,41.2,29.73,West,270,0.0,2.0,90,0.00,,,0.00,WUHU216HW,2013-02-06 07:20:00,
2013-02-05 23:25:00,43.7,41.0,29.73,West,270,0.0,2.0,90,0.00,,,0.00,WUHU216HW,2013-02-06 07:25:00,
2013-02-05 23:30:00,43.6,40.9,29.73,NW,315,0.4,1.6,90,0.00,,,0.00,WUHU216HW,2013-02-06 07:30:00,
2013-02-05 23:35:00,43.7,41.0,29.74,ESE,113,0.0,1.3,90,0.00,,,0.00,WUHU216HW,2013-02-06 07:35:00,
2013-02-05 23:40:00,43.6,40.9,29.74,ESE,113,0.0,1.3,90,0.00,,,0.00,WUHU216HW,2013-02-06 07:40:00,
2013-02-05 23:45:00,43.6,40.9,29.74,West,270,0.4,0.4,90,0.00,,,0.00,WUHU216HW,2013-02-06 07:45:00,
2013-02-05 23:50:00,43.6,41.1,29.74,West,270,0.0,1.3,91,0.00,,,0.00,WUHU216HW,2013-02-06 07:50:00,
2013-02-05 23:55:00,43.4,40.7,29.74,West,270,0.0,1.3,90,0.00,,,0.00,WUHU216HW,2013-02-06 07:55:00,